ONEWEB-0207, 48242

Orbit data source: Space-Track

ONEWEB-0207, 48242 is a payload satellite owned by One Web (NAA) (UK) in LEO that was launched on Sun, 25 Apr 2021 UTC via a SOYUZ-2-1B launch vehicle from the Vostochny Cosmodrome (VOSTO). Payload-class satellites include a variety of spacecraft equipped with specific instruments for various scientific and technological missions. These include communications satellites like Starlink; space stations such as the ISS; scientific satellites like the Hubble; Earth observation satellites from companies like Planet Labs, Umbra, and HawkEye 360; GPS; miniature CubeSats for education and research; and military/defense satellites.

Loading next visibility...
Identifier
48242, 2021-031AJ
Orbit
LEO
Country
Flag of UKUK
Related business
Manufacturer
One Web
Mission
Operational Commercial Communications
Bus & Motor
ARROW, Unknown motor
Mass
148 kg wet, ~140 kg dry
Launch date (UTC)
2021-04-25 (5 years ago)
Launch vehicle
SOYUZ-2-1B
Launch site
Vostochny Cosmodrome (VOSTO)
Object type
Payload
Rocket body
Debris
Shape & HBR
Trap Box + 2 Pan, 6.7 m
Radar Cross Section
3.464 m², Large (>1 m²)

Expand to show TLE details & history
Last TLE update: 7 hours ago

TLE from 7 hours ago
0 ONEWEB-0207
1 48242U 21031AJ  26094.87676138  .00000183  00000-0  45841-3 0  9991
2 48242  87.8952 304.3266 0001440  84.1002 276.0292 13.14501298238666
Epoch: 2026-04-04T21:02Z
TLE epoch observation values (Epoch: 2026-04-04T21:02:32.183Z)
Latitude
0.00001°
Longitude
155.50226°
Altitude
1,208.575 km
Speed
7.25 km/s
True Right ascension
20h 17m 18s
True Declination
0° 00' 00"
Sunlit
Object was in daylight at epoch
Visualization orbit readout
Latitude
Unknown
Longitude
Unknown
Altitude
Unknown
Speed
Unknown
Apparent Right ascension
Unknown
Apparent Declination
Unknown
Sunlit
N/A
Visualization observer readout
Local Sidereal Time
09:26:11
Azimuth
Unknown
Elevation
Unknown
Doppler factor
Unknown
Orbital elements
Apogee altitude
1,204.001 km
Perigee altitude
1,201.818 km
Semi-major axis
7,581.047 km
Eccentricity
0.00014
Inclination
87.8952°
RAAN
304.3266°
Arg. of periapsis
84.1002°
True anomaly
276.01279°
Mean anomaly
276.0292°
Eccentric anomaly
276.02099°
Mean motion
3.28813 °/min
Orbital period
109.48 mins
BSTAR
0.00045841
Loading maneuver chart data...
Computing Atmospheric mass density...
Loading historical data...
Loading historical data...
Loading historical data...
Loading historical data...
Loading historical data...
Loading historical data...
Loading historical data...

Documentation

Showing up to 5 results
|